This is the latest recevied weather packets stored in our database for station/object IZ1UQG-1. If no packets are shown the sender has not sent any weather packets the latest 10 day(s).
| Time | Temp. | Humidity | Pressure | Rain* | Wind** | Luminosity | Snow |
|---|---|---|---|---|---|---|---|
| 1778110432 | 12.78° C | 82% | 1012.3 hPa | 168.15 mm | - | - | - |
| 1778110132 | 12.78° C | 82% | 1012.3 hPa | 146.56 mm | - | - | - |
| 1778109832 | 12.78° C | 82% | 1012.2 hPa | 145.54 mm | - | - | - |
| 1778109532 | 12.78° C | 82% | 1012.1 hPa | 157.23 mm | - | - | - |
| 1778109232 | 12.78° C | 82% | 1012.2 hPa | 153.16 mm | - | - | - |
| 1778108932 | 12.78° C | 82% | 1012.2 hPa | 138.68 mm | - | - | - |
| 1778108632 | 12.78° C | 82% | 1012.5 hPa | 139.7 mm | - | - | - |
| 1778108332 | 12.78° C | 82% | 1012.2 hPa | 145.54 mm | - | - | - |
| 1778108032 | 12.78° C | 82% | 1012.2 hPa | 152.65 mm | - | - | - |
| 1778107732 | 12.78° C | 82% | 1012.2 hPa | 138.68 mm | - | - | - |
| 1778107432 | 12.78° C | 82% | 1012 hPa | 126.24 mm | - | - | - |
| 1778107132 | 13.33° C | 82% | 1012 hPa | 138.18 mm | - | - | - |
| 1778106832 | 13.33° C | 82% | 1012.1 hPa | 129.29 mm | - | - | - |
| 1778106532 | 13.33° C | 82% | 1012.1 hPa | 124.21 mm | - | - | - |
| 1778106232 | 13.33° C | 82% | 1012.1 hPa | 118.62 mm | - | - | - |
| 1778105932 | 13.33° C | 82% | 1011.9 hPa | 114.81 mm | - | - | - |
| 1778105632 | 13.33° C | 82% | 1011.8 hPa | 138.68 mm | - | - | - |
| 1778105333 | 13.33° C | 82% | 1011.8 hPa | 132.59 mm | - | - | - |
| 1778105032 | 13.33° C | 82% | 1011.8 hPa | 138.18 mm | - | - | - |
| 1778104732 | 13.33° C | 82% | 1011.9 hPa | 130.81 mm | - | - | - |
| 1778104432 | 13.33° C | 82% | 1011.8 hPa | 147.07 mm | - | - | - |
| 1778104132 | 13.33° C | 82% | 1011.8 hPa | 156.21 mm | - | - | - |
| 1778103832 | 13.33° C | 82% | 1012 hPa | 159.51 mm | - | - | - |
| 1778103532 | 13.33° C | 82% | 1011.8 hPa | 155.7 mm | - | - | - |
| 1778103232 | 13.33° C | 82% | 1011.8 hPa | 168.66 mm | - | - | - |
* Rain latest hour (hover to see other rain measurements)
** Current wind speed in m/s (hover to see current wind gust speed)